EA3KZ-1 Weather Reports


Display with metric or nautical units.
time (UTC)temp
F
wind
direction
speed
MPH
gust
MPH
rain 1hr
in
rain 24hr
in
rain mn
in
humidity
%
barometer
mb
20260902043613 70 0.0 0.0 0.00 0.00 0.00 82 1016.2
20260902042611 70 248 0.0 2.0 0.00 0.00 0.00 83 1016.1
20260902041608 70 203 0.0 2.0 0.00 0.00 0.00 83 1016.0
20260902040605 71 0.0 0.0 0.00 0.00 0.00 83 1016.3
20260902035603 71 248 0.0 2.0 0.00 0.00 0.00 84 1016.3
20260902034600 70 0.0 0.0 0.00 0.00 0.00 85 1016.3
20260902033558 70 0.0 2.0 0.00 0.00 0.00 85 1016.3
20260902032555 70 0.0 0.0 0.00 0.00 0.00 84 1016.5
20260902031552 71 0.0 0.0 0.00 0.00 0.00 84 1016.5
20260902030550 71 277 0.0 2.0 0.00 0.00 0.00 84 1016.3
20260902025547 71 0.0 0.0 0.00 0.00 0.00 84 1016.3
20260902024545 71 0.0 0.0 0.00 0.00 0.00 85 1016.5
20260902023542 70 0.0 2.0 0.00 0.00 0.00 85 1016.3
20260902022539 70 225 3.0 4.0 0.00 0.00 0.00 86 1016.5
20260902021537 70 192 2.0 4.0 0.00 0.00 0.00 86 1016.5
20260902020534 71 225 0.0 2.0 0.00 0.00 0.00 86 1016.6
20260902015532 70 230 4.0 4.0 0.00 0.00 0.00 87 1016.7
20260902014529 70 230 3.0 4.0 0.00 0.00 0.00 87 1016.6
20260902013526 70 237 4.0 7.0 0.00 0.00 0.00 87 1016.9
20260902012524 71 227 1.0 4.0 0.00 0.00 0.00 86 1016.9
20260902011521 71 191 0.0 2.0 0.00 0.00 0.00 87 1016.9
20260902010519 71 240 2.0 4.0 0.00 0.00 0.00 87 1016.9
20260902005516 71 221 3.0 4.0 0.00 0.00 0.00 87 1017.1
20260902004614 71 222 3.0 4.0 0.00 0.00 0.00 87 1017.2
20260902003611 71 236 4.0 4.0 0.00 0.00 0.00 86 1017.0
20260902002608 71 209 2.0 4.0 0.00 0.00 0.00 86 1017.0
20260902001606 71 218 1.0 4.0 0.00 0.00 0.00 86 1017.2
20260902000603 71 225 2.0 2.0 0.00 0.00 0.00 86 1017.1
20260901235601 71 235 3.0 6.0 0.00 0.00 0.00 85 1017.0
20260901234558 71 258 3.0 6.0 0.00 0.00 0.00 85 1017.0
20260901233555 72 228 2.0 4.0 0.00 0.00 0.00 84 1017.0
20260901232553 72 245 1.0 4.0 0.00 0.00 0.00 84 1017.1
20260901231550 72 215 2.0 4.0 0.00 0.00 0.00 84 1017.0
20260901230548 72 222 2.0 4.0 0.00 0.00 0.00 83 1017.0
20260901225545 72 213 2.0 4.0 0.00 0.00 0.00 83 1017.0
20260901224543 72 199 2.0 4.0 0.00 0.00 0.00 83 1016.7
20260901223540 72 220 2.0 6.0 0.00 0.00 0.00 82 1016.7
20260901222537 72 229 2.0 4.0 0.00 0.00 0.00 82 1016.6
20260901221535 72 225 4.0 7.0 0.00 0.00 0.00 82 1016.7
20260901220532 72 214 3.0 6.0 0.00 0.00 0.00 81 1016.5
20260901215530 72 238 3.0 6.0 0.00 0.00 0.00 81 1016.5
20260901214527 72 214 2.0 4.0 0.00 0.00 0.00 80 1016.5
20260901213524 72 202 3.0 4.0 0.00 0.00 0.00 80 1016.5
20260901212522 72 217 4.0 6.0 0.00 0.00 0.00 80 1016.2
20260901211519 73 213 2.0 2.0 0.00 0.00 0.00 79 1016.0
20260901210517 72 243 2.0 4.0 0.00 0.00 0.00 79 1016.1
20260901205614 72 230 3.0 4.0 0.00 0.00 0.00 79 1016.0
20260901204612 73 202 2.0 4.0 0.00 0.00 0.00 78 1016.1
20260901203609 73 180 2.0 4.0 0.00 0.00 0.00 77 1016.0
20260901202606 73 229 2.0 4.0 0.00 0.00 0.00 77 1015.8
20260901201604 73 243 2.0 4.0 0.00 0.00 0.00 77 1015.6
20260901200601 74 205 1.0 4.0 0.00 0.00 0.00 76 1015.7
20260901195559 74 211 1.0 4.0 0.00 0.00 0.00 75 1015.6
20260901194556 74 237 2.0 4.0 0.00 0.00 0.00 75 1015.4
20260901193553 75 235 1.0 4.0 0.00 0.00 0.00 74 1015.5
20260901192551 75 201 2.0 4.0 0.00 0.00 0.00 74 1015.5
20260901191548 76 188 2.0 4.0 0.00 0.00 0.00 73 1015.3
20260901190546 76 167 3.0 4.0 0.00 0.00 0.00 73 1015.1
20260901185543 76 121 3.0 6.0 0.00 0.00 0.00 73 1015.1
20260901184540 76 125 3.0 6.0 0.00 0.00 0.00 72 1015.0
20260901183538 76 183 3.0 4.0 0.00 0.00 0.00 72 1014.8
20260901182535 76 158 3.0 6.0 0.00 0.00 0.00 72 1014.7
20260901181533 77 145 2.0 4.0 0.00 0.00 0.00 71 1014.9
20260901180530 77 127 2.0 4.0 0.00 0.00 0.00 70 1015.1
20260901175527 77 187 3.0 7.0 0.00 0.00 0.00 70 1015.2
20260901174525 77 129 3.0 8.0 0.00 0.00 0.00 70 1015.5
20260901173522 77 164 3.0 8.0 0.00 0.00 0.00 69 1015.5
20260901172520 78 144 4.0 11.0 0.00 0.00 0.00 68 1015.6
20260901171517 78 125 6.0 13.0 0.00 0.00 0.00 68 1015.8
20260901170515 78 143 4.0 8.0 0.00 0.00 0.00 67 1015.6
20260901165612 78 72 4.0 9.0 0.00 0.00 0.00 67 1015.5
20260901164609 79 74 4.0 9.0 0.00 0.00 0.00 66 1015.5
20260901163607 79 109 3.0 8.0 0.00 0.00 0.00 66 1015.7
20260901162604 79 113 4.0 9.0 0.00 0.00 0.00 66 1015.8
20260901161602 80 118 2.0 8.0 0.00 0.00 0.00 65 1015.9
20260901160559 81 104 4.0 11.0 0.00 0.00 0.00 64 1015.8
20260901155557 82 75 3.0 6.0 0.00 0.00 0.00 62 1015.6
20260901154554 82 96 3.0 8.0 0.00 0.00 0.00 60 1015.6
20260901153551 82 111 3.0 8.0 0.00 0.00 0.00 61 1015.7
20260901152549 82 95 4.0 9.0 0.00 0.00 0.00 62 1015.9
20260901151546 81 123 4.0 11.0 0.00 0.00 0.00 63 1015.9
20260901150544 80 85 4.0 8.0 0.00 0.00 0.00 64 1015.9
20260901145541 80 109 6.0 13.0 0.00 0.00 0.00 64 1016.3
20260901144538 81 95 3.0 9.0 0.00 0.00 0.00 59 1016.0
20260901143536 81 119 3.0 6.0 0.00 0.00 0.00 59 1016.0
20260901142533 81 114 5.0 11.0 0.00 0.00 0.00 59 1016.3
20260901141531 82 114 3.0 8.0 0.00 0.00 0.00 58 1016.1
20260901140528 81 94 3.0 7.0 0.00 0.00 0.00 59 1015.8
20260901135525 81 129 4.0 11.0 0.00 0.00 0.00 59 1016.3
20260901134523 81 125 3.0 7.0 0.00 0.00 0.00 60 1016.3
20260901133521 81 176 4.0 8.0 0.00 0.00 0.00 60 1016.4
20260901132518 81 113 3.0 6.0 0.00 0.00 0.00 61 1016.6
20260901131515 83 181 5.0 11.0 0.00 0.00 0.00 58 1016.7
20260901130613 83 122 5.0 9.0 0.00 0.00 0.00 60 1016.7
20260901125610 83 61 3.0 13.0 0.00 0.00 0.00 61 1016.9
20260901124607 83 171 3.0 7.0 0.00 0.00 0.00 62 1016.8
20260901123605 82 88 4.0 11.0 0.00 0.00 0.00 63 1016.8
20260901122602 82 77 3.0 7.0 0.00 0.00 0.00 62 1017.0
20260901121600 82 74 5.0 11.0 0.00 0.00 0.00 62 1017.0
20260901120557 83 180 3.0 9.0 0.00 0.00 0.00 61 1017.1
20260901115554 82 110 3.0 8.0 0.00 0.00 0.00 62 1017.1
20260901114552 81 139 5.0 11.0 0.00 0.00 0.00 63 1017.1
20260901113549 82 98 4.0 11.0 0.00 0.00 0.00 61 1017.1
20260901112547 83 83 3.0 11.0 0.00 0.00 0.00 58 1017.2
20260901111544 82 121 4.0 9.0 0.00 0.00 0.00 59 1017.3
20260901110541 82 95 4.0 11.0 0.00 0.00 0.00 58 1017.3
20260901105539 84 127 3.0 7.0 0.00 0.00 0.00 56 1017.3
20260901104536 83 127 2.0 8.0 0.00 0.00 0.00 57 1017.2
20260901103534 82 111 3.0 8.0 0.00 0.00 0.00 56 1017.4
20260901102531 83 109 4.0 9.0 0.00 0.00 0.00 55 1017.4
20260901101529 82 98 3.0 8.0 0.00 0.00 0.00 56 1017.5
20260901100526 82 150 2.0 6.0 0.00 0.00 0.00 59 1017.4
20260901095524 83 167 2.0 4.0 0.00 0.00 0.00 57 1017.5
20260901094521 81 94 4.0 9.0 0.00 0.00 0.00 62 1017.4
20260901093518 81 130 4.0 11.0 0.00 0.00 0.00 61 1017.2
20260901092516 82 106 2.0 8.0 0.00 0.00 0.00 58 1017.1
20260901091613 80 198 2.0 4.0 0.00 0.00 0.00 61 1017.0
20260901090611 81 78 3.0 7.0 0.00 0.00 0.00 60 1016.9
20260901085608 81 105 2.0 4.0 0.00 0.00 0.00 60 1016.7
20260901084605 81 102 2.0 4.0 0.00 0.00 0.00 61 1016.7
20260901083603 79 128 1.0 2.0 0.00 0.00 0.00 62 1016.7
20260901082600 79 131 2.0 4.0 0.00 0.00 0.00 63 1016.6
20260901081558 78 113 2.0 4.0 0.00 0.00 0.00 64 1016.7
20260901080555 79 208 1.0 2.0 0.00 0.00 0.00 63 1016.5
20260901075552 78 140 1.0 2.0 0.00 0.00 0.00 65 1016.7
20260901074550 77 131 1.0 4.0 0.00 0.00 0.00 65 1016.6
20260901073547 76 202 3.0 4.0 0.00 0.00 0.00 66 1016.7
20260901072545 76 220 0.0 2.0 0.00 0.00 0.00 68 1016.6
20260901071542 75 221 3.0 6.0 0.00 0.00 0.00 71 1016.5
20260901070539 75 258 2.0 4.0 0.00 0.00 0.00 72 1016.8
20260901065537 74 228 2.0 4.0 0.00 0.00 0.00 72 1016.8
20260901064534 74 235 1.0 4.0 0.00 0.00 0.00 71 1016.8
20260901063532 74 226 1.0 2.0 0.00 0.00 0.00 71 1016.7
20260901062529 73 244 1.0 2.0 0.00 0.00 0.00 72 1016.7
20260901061526 72 258 1.0 2.0 0.00 0.00 0.00 74 1016.6
20260901060524 71 267 1.0 2.0 0.00 0.00 0.00 77 1016.7
20260901055521 71 270 1.0 4.0 0.00 0.00 0.00 78 1016.4
20260901054519 70 255 1.0 2.0 0.00 0.00 0.00 79 1016.5
20260901053516 70 251 2.0 4.0 0.00 0.00 0.00 80 1016.5
20260901052614 69 227 3.0 4.0 0.00 0.00 0.00 81 1016.6
20260901051611 69 234 2.0 4.0 0.00 0.00 0.00 81 1016.4
20260901050608 70 234 2.0 4.0 0.00 0.00 0.00 81 1016.5
20260901045606 70 248 2.0 4.0 0.00 0.00 0.00 81 1016.5
20260901044603 70 243 2.0 4.0 0.00 0.00 0.00 81 1016.5